Погода в Пискове

Россия / Калужская область     55°05′05″N   36°28′07″E
темп.,
°C
ветер,
м/с
пор.,
м/с
влажн.,
%
обл.,
%
осадки,
мм/ч
давл.,
гПа
погр.,
м
16 мая, вс
вс1600:00+12ююз410962 0.2 1010287
03:00+10ююз389812 0.2 1011180
06:00+11ююз38963 0.0 1012233
09:00+16ююз47785 0.0 1013599
12:00+19ююз47665 0.5 10131325
15:00+20юз57594 1.7 10131568
18:00+20юз24683 0.1 1013404
21:00+14ю1187100 0.2 101411
17 мая, пн
пн1700:00+12в1191100 0.0 101411
03:00+12вюв1194100 0.0 101510
06:00+13в249076 0.0 1014108
09:00+19вюв4870100 0.2 1015513
12:00+23в575651 0.3 10121019
15:00+25вюв68575 0.3 10111318
18:00+24вюв5969100 0.0 1009895
21:00+19вюв5148238 0.0 1009559
18 мая, вт
вт1800:00+17вюв414855 0.0 1009449
03:00+15вюв311915 0.0 1008281
06:00+15вюв4128467 0.0 1007335
09:00+20юв51063100 0.0 1007535
12:00+24юв61156100 0.0 10071116
15:00+25юв6135362 0.0 10061740
18:00+22ююв51066100 0.2 1006810
21:00+16ююв31092100 1.3 1006217
19 мая, ср
ср1900:00+14ююв39925 0.1 1006230
03:00+13юв259648 0.1 100697
06:00+14вюв2794100 0.0 1006195
09:00+17юв288592 0.0 1005452
12:00+19ююв377071 0.0 1005979
15:00+21юв596882 0.4 10041268
18:00+18юв498797 1.9 1003759
21:00+14юв3995100 4.1 1003268
20 мая, чт
чт2000:00+14ю499699 0.4 1003519
03:00+11ююв399835 0.4 1003361
06:00+11ююв4793100 0.0 1003508
09:00+11ююв3895100 0.3 1004534
12:00+14ю6883100 0.8 10031203
15:00+10ююз61190100 1.4 10051238
18:00+9зюз71590100 0.2 1008918
21:00+10зюз7148166 0.2 10111145